Time,TemperatureF,DewpointF,PressureIn,WindDirection,WindDirectionDegrees,WindSpeedMPH,WindSpeedGustMPH,Humidity,HourlyPrecipIn,Conditions,Clouds,dailyrainin,SoftwareType,DateUTC
2013-01-10 00:00:00,29.4,22.8,30.41,NNW,343,0.0,1.0,76,0.00,,---,0.00,VWS V14.01,2013-01-10 05:00:00,
2013-01-10 00:01:00,29.4,23.1,30.41,NNW,343,1.0,1.0,77,0.00,,---,0.02,VWS V14.01,2013-01-10 05:01:00,
2013-01-10 00:06:00,29.1,22.8,30.41,NNW,343,0.0,2.0,77,0.00,,---,0.00,VWS V14.01,2013-01-10 05:06:00,
2013-01-10 00:10:00,29.0,22.4,30.41,NNW,343,0.0,2.0,76,0.00,,---,0.00,VWS V14.01,2013-01-10 05:10:00,
2013-01-10 00:11:00,28.8,22.5,30.41,NNW,343,0.0,0.0,77,0.00,,---,0.00,VWS V14.01,2013-01-10 05:11:00,
2013-01-10 00:16:00,28.4,22.4,30.41,NNW,343,0.0,0.0,78,0.00,,---,0.00,VWS V14.01,2013-01-10 05:16:00,
2013-01-10 00:20:00,28.4,22.4,30.41,NNW,343,0.0,0.0,78,0.00,,---,0.00,VWS V14.01,2013-01-10 05:20:00,
2013-01-10 00:21:00,28.4,22.7,30.41,NNW,343,0.0,1.0,79,0.00,,---,0.00,VWS V14.01,2013-01-10 05:21:00,
2013-01-10 00:26:00,28.1,22.1,30.40,NNW,343,1.0,2.0,78,0.00,,---,0.00,VWS V14.01,2013-01-10 05:26:00,
2013-01-10 00:30:00,27.9,22.2,30.41,NNW,343,0.0,2.0,79,0.00,,---,0.00,VWS V14.01,2013-01-10 05:30:00,
2013-01-10 00:31:00,27.8,22.1,30.41,NNW,343,0.0,0.0,79,0.00,,---,0.00,VWS V14.01,2013-01-10 05:31:00,
2013-01-10 00:36:00,27.7,22.0,30.40,NNW,343,1.0,3.0,79,0.00,,---,0.00,VWS V14.01,2013-01-10 05:36:00,
2013-01-10 00:40:00,27.7,22.0,30.40,NNW,343,2.0,3.0,79,0.00,,---,0.00,VWS V14.01,2013-01-10 05:40:00,
2013-01-10 00:41:00,27.5,21.9,30.40,NNW,343,1.0,3.0,79,0.00,,---,0.00,VWS V14.01,2013-01-10 05:41:00,
2013-01-10 00:46:00,27.3,21.7,30.40,NNW,343,2.0,3.0,79,0.00,,---,0.00,VWS V14.01,2013-01-10 05:46:00,
2013-01-10 00:50:00,27.3,21.7,30.40,NNW,343,1.0,3.0,79,0.00,,---,0.00,VWS V14.01,2013-01-10 05:50:00,
2013-01-10 00:51:00,27.5,22.1,30.40,NNW,343,2.0,2.0,80,0.00,,---,0.00,VWS V14.01,2013-01-10 05:51:00,
2013-01-10 00:56:00,28.2,23.1,30.40,NNW,343,3.0,4.0,81,0.00,,---,0.00,VWS V14.01,2013-01-10 05:56:00,
2013-01-10 01:00:00,28.8,23.7,30.40,NNW,343,5.0,5.0,81,0.00,,---,0.00,VWS V14.01,2013-01-10 06:00:00,
2013-01-10 01:02:00,29.1,24.0,30.40,North,0,4.0,5.0,81,0.00,,---,0.00,VWS V14.01,2013-01-10 06:02:00,
2013-01-10 01:07:00,29.7,24.0,30.40,North,0,4.0,5.0,79,0.00,,---,0.00,VWS V14.01,2013-01-10 06:07:00,
2013-01-10 01:10:00,30.0,24.3,30.40,North,0,1.0,5.0,79,0.00,,---,0.00,VWS V14.01,2013-01-10 06:10:00,
2013-01-10 01:12:00,30.0,24.3,30.41,North,0,0.0,3.0,79,0.00,,---,0.00,VWS V14.01,2013-01-10 06:12:00,
2013-01-10 01:17:00,29.9,23.9,30.41,North,0,0.0,3.0,78,0.00,,---,0.00,VWS V14.01,2013-01-10 06:17:00,
2013-01-10 01:20:00,29.7,23.7,30.41,North,0,0.0,3.0,78,0.00,,---,0.00,VWS V14.01,2013-01-10 06:20:00,
2013-01-10 01:22:00,29.7,24.0,30.41,North,0,1.0,2.0,79,0.00,,---,0.00,VWS V14.01,2013-01-10 06:22:00,
2013-01-10 01:27:00,29.4,23.7,30.41,North,0,0.0,2.0,79,0.00,,---,0.00,VWS V14.01,2013-01-10 06:27:00,
2013-01-10 01:30:00,29.4,23.7,30.41,North,0,0.0,2.0,79,0.00,,---,0.00,VWS V14.01,2013-01-10 06:30:00,
2013-01-10 01:32:00,29.3,23.6,30.41,North,0,0.0,1.0,79,0.00,,---,0.00,VWS V14.01,2013-01-10 06:32:00,
2013-01-10 01:37:00,29.0,23.3,30.41,North,0,1.0,3.0,79,0.00,,---,0.00,VWS V14.01,2013-01-10 06:37:00,
2013-01-10 01:40:00,28.8,23.1,30.42,North,0,0.0,3.0,79,0.00,,---,0.00,VWS V14.01,2013-01-10 06:40:00,
2013-01-10 01:42:00,28.7,23.0,30.42,North,0,0.0,1.0,79,0.00,,---,0.00,VWS V14.01,2013-01-10 06:42:00,
2013-01-10 01:47:00,28.4,23.0,30.42,North,0,1.0,3.0,80,0.00,,---,0.00,VWS V14.01,2013-01-10 06:47:00,
2013-01-10 01:50:00,28.2,23.1,30.42,North,0,1.0,3.0,81,0.00,,---,0.00,VWS V14.01,2013-01-10 06:50:00,
2013-01-10 01:52:00,28.1,23.0,30.42,North,0,1.0,3.0,81,0.00,,---,0.00,VWS V14.01,2013-01-10 06:52:00,
2013-01-10 01:57:00,27.2,21.6,30.41,North,0,0.0,3.0,79,0.00,,---,0.00,VWS V14.01,2013-01-10 06:57:00,
2013-01-10 02:00:00,26.9,21.6,30.41,North,0,0.0,3.0,80,0.00,,---,0.00,VWS V14.01,2013-01-10 07:00:00,
2013-01-10 02:02:00,26.7,21.7,30.41,North,0,0.0,1.0,81,0.00,,---,0.00,VWS V14.01,2013-01-10 07:02:00,
2013-01-10 02:07:00,26.6,21.6,30.41,North,0,0.0,2.0,81,0.00,,---,0.00,VWS V14.01,2013-01-10 07:07:00,
2013-01-10 02:10:00,26.5,21.8,30.41,North,0,0.0,2.0,82,0.00,,---,0.00,VWS V14.01,2013-01-10 07:10:00,
2013-01-10 02:12:00,26.3,21.6,30.41,North,0,0.0,0.0,82,0.00,,---,0.00,VWS V14.01,2013-01-10 07:12:00,
2013-01-10 02:17:00,26.3,22.1,30.41,North,0,0.0,2.0,84,0.00,,---,0.02,VWS V14.01,2013-01-10 07:17:00,
2013-01-10 02:20:00,26.5,22.3,30.41,North,0,0.0,2.0,84,0.00,,---,0.00,VWS V14.01,2013-01-10 07:20:00,
2013-01-10 02:22:00,26.6,22.4,30.41,North,0,0.0,0.0,84,0.00,,---,0.00,VWS V14.01,2013-01-10 07:22:00,
2013-01-10 02:27:00,27.0,22.8,30.41,North,0,0.0,1.0,84,0.00,,---,0.00,VWS V14.01,2013-01-10 07:27:00,
2013-01-10 02:30:00,27.2,23.0,30.42,North,0,0.0,1.0,84,0.00,,---,0.00,VWS V14.01,2013-01-10 07:30:00,
2013-01-10 02:32:00,27.5,23.3,30.42,North,0,0.0,0.0,84,0.00,,---,0.00,VWS V14.01,2013-01-10 07:32:00,
2013-01-10 02:37:00,27.8,23.6,30.42,North,0,2.0,3.0,84,0.00,,---,0.00,VWS V14.01,2013-01-10 07:37:00,
2013-01-10 02:40:00,27.9,23.4,30.42,North,0,3.0,5.0,83,0.00,,---,0.00,VWS V14.01,2013-01-10 07:40:00,
2013-01-10 02:42:00,28.1,23.3,30.41,North,0,2.0,5.0,82,0.00,,---,0.00,VWS V14.01,2013-01-10 07:42:00,
2013-01-10 02:47:00,28.6,23.8,30.41,North,0,2.0,5.0,82,0.00,,---,0.00,VWS V14.01,2013-01-10 07:47:00,
2013-01-10 02:50:00,28.8,23.7,30.42,North,0,1.0,5.0,81,0.00,,---,0.00,VWS V14.01,2013-01-10 07:50:00,
2013-01-10 02:52:00,29.0,23.6,30.43,North,0,0.0,3.0,80,0.00,,---,0.00,VWS V14.01,2013-01-10 07:52:00,
2013-01-10 02:57:00,28.8,23.1,30.43,North,0,2.0,4.0,79,0.00,,---,0.00,VWS V14.01,2013-01-10 07:57:00,
2013-01-10 03:00:00,28.7,23.0,30.43,North,0,1.0,4.0,79,0.00,,---,0.00,VWS V14.01,2013-01-10 08:00:00,
2013-01-10 03:02:00,28.1,22.1,30.43,North,0,3.0,4.0,78,0.00,,---,0.00,VWS V14.01,2013-01-10 08:02:00,
2013-01-10 03:07:00,27.1,21.5,30.43,North,0,4.0,4.0,79,0.00,,---,0.00,VWS V14.01,2013-01-10 08:07:00,
2013-01-10 03:10:00,26.7,21.7,30.43,North,0,2.0,4.0,81,0.00,,---,0.00,VWS V14.01,2013-01-10 08:10:00,
2013-01-10 03:12:00,26.1,20.8,30.43,North,0,2.0,4.0,80,0.00,,---,0.00,VWS V14.01,2013-01-10 08:12:00,
2013-01-10 03:17:00,25.2,20.2,30.43,North,0,2.0,5.0,81,0.00,,---,0.00,VWS V14.01,2013-01-10 08:17:00,
2013-01-10 03:20:00,24.8,19.5,30.43,North,0,2.0,5.0,80,0.00,,---,0.00,VWS V14.01,2013-01-10 08:20:00,
2013-01-10 03:22:00,24.9,20.5,30.43,SW,224,2.0,5.0,83,0.00,,---,0.00,VWS V14.01,2013-01-10 08:22:00,
2013-01-10 03:27:00,25.1,21.0,30.44,SSE,164,3.0,5.0,84,0.00,,---,0.00,VWS V14.01,2013-01-10 08:27:00,
2013-01-10 03:30:00,25.4,21.5,30.44,SSE,165,5.0,5.0,85,0.00,,---,0.00,VWS V14.01,2013-01-10 08:30:00,
2013-01-10 03:32:00,25.7,21.5,30.44,SSE,165,4.0,6.0,84,0.00,,---,0.00,VWS V14.01,2013-01-10 08:32:00,
2013-01-10 03:37:00,26.0,21.8,30.44,South,173,2.0,6.0,84,0.00,,---,0.00,VWS V14.01,2013-01-10 08:37:00,
2013-01-10 03:40:00,26.0,21.8,30.44,SSE,167,3.0,6.0,84,0.00,,---,0.00,VWS V14.01,2013-01-10 08:40:00,
2013-01-10 03:42:00,25.9,21.7,30.44,SE,139,2.0,4.0,84,0.00,,---,0.00,VWS V14.01,2013-01-10 08:42:00,
2013-01-10 03:48:00,25.5,21.4,30.44,SE,142,2.0,5.0,84,0.00,,---,0.00,VWS V14.01,2013-01-10 08:48:00,
2013-01-10 03:50:00,25.5,21.4,30.44,SSE,153,2.0,6.0,84,0.00,,---,0.00,VWS V14.01,2013-01-10 08:50:00,
2013-01-10 03:53:00,25.4,21.2,30.44,SSE,153,5.0,5.0,84,0.00,,---,0.00,VWS V14.01,2013-01-10 08:53:00,
2013-01-10 03:58:00,25.2,21.0,30.45,South,173,4.0,7.0,84,0.00,,---,0.00,VWS V14.01,2013-01-10 08:58:00,
2013-01-10 04:00:00,25.2,21.0,30.45,South,179,1.0,7.0,84,0.00,,---,0.00,VWS V14.01,2013-01-10 09:00:00,
2013-01-10 04:03:00,25.4,21.5,30.45,SSE,168,4.0,6.0,85,0.00,,---,0.00,VWS V14.01,2013-01-10 09:03:00,
2013-01-10 04:08:00,26.0,22.4,30.45,South,176,3.0,7.0,86,0.00,,---,0.00,VWS V14.01,2013-01-10 09:08:00,
2013-01-10 04:10:00,26.1,22.5,30.45,South,172,5.0,7.0,86,0.00,,---,0.00,VWS V14.01,2013-01-10 09:10:00,
2013-01-10 04:13:00,26.3,22.4,30.46,SSE,153,2.0,7.0,85,0.00,,---,0.00,VWS V14.01,2013-01-10 09:13:00,
2013-01-10 04:18:00,26.2,22.0,30.46,SSE,161,3.0,7.0,84,0.00,,---,0.00,VWS V14.01,2013-01-10 09:18:00,
2013-01-10 04:20:00,26.1,21.9,30.47,SSE,162,5.0,7.0,84,0.00,,---,0.00,VWS V14.01,2013-01-10 09:20:00,
2013-01-10 04:23:00,26.1,22.2,30.47,SSE,160,3.0,7.0,85,0.00,,---,0.00,VWS V14.01,2013-01-10 09:23:00,
2013-01-10 04:28:00,26.3,22.1,30.47,SSE,165,2.0,7.0,84,0.00,,---,0.00,VWS V14.01,2013-01-10 09:28:00,
2013-01-10 04:30:00,26.3,22.1,30.47,SSE,165,3.0,7.0,84,0.00,,---,0.00,VWS V14.01,2013-01-10 09:30:00,
2013-01-10 04:33:00,26.3,22.1,30.48,SSE,165,2.0,5.0,84,0.00,,---,0.00,VWS V14.01,2013-01-10 09:33:00,
2013-01-10 04:38:00,26.0,21.8,30.49,SSE,165,2.0,5.0,84,0.00,,---,0.00,VWS V14.01,2013-01-10 09:38:00,
2013-01-10 04:40:00,25.8,21.6,30.49,SSE,165,1.0,5.0,84,0.00,,---,0.00,VWS V14.01,2013-01-10 09:40:00,
2013-01-10 04:43:00,25.8,21.6,30.50,SSE,165,1.0,3.0,84,0.00,,---,0.00,VWS V14.01,2013-01-10 09:43:00,
2013-01-10 04:48:00,25.5,21.4,30.50,SSE,165,1.0,3.0,84,0.00,,---,0.00,VWS V14.01,2013-01-10 09:48:00,
2013-01-10 04:50:00,25.5,21.4,30.50,SSE,165,2.0,3.0,84,0.00,,---,0.00,VWS V14.01,2013-01-10 09:50:00,
2013-01-10 04:53:00,25.4,21.2,30.50,SSE,165,1.0,3.0,84,0.00,,---,0.00,VWS V14.01,2013-01-10 09:53:00,
2013-01-10 04:58:00,25.1,21.0,30.50,SSE,165,2.0,3.0,84,0.00,,---,0.00,VWS V14.01,2013-01-10 09:58:00,
2013-01-10 05:00:00,25.1,21.0,30.50,SSE,165,1.0,3.0,84,0.00,,---,0.00,VWS V14.01,2013-01-10 10:00:00,
2013-01-10 05:03:00,25.1,21.0,30.50,SSE,165,2.0,2.0,84,0.00,,---,0.00,VWS V14.01,2013-01-10 10:03:00,
2013-01-10 05:08:00,25.1,21.2,30.50,SSE,165,0.0,3.0,85,0.00,,---,0.00,VWS V14.01,2013-01-10 10:08:00,
2013-01-10 05:10:00,25.1,21.2,30.50,SSE,165,0.0,3.0,85,0.00,,---,0.00,VWS V14.01,2013-01-10 10:10:00,
2013-01-10 05:13:00,24.9,20.8,30.50,SSE,165,0.0,0.0,84,0.00,,---,0.00,VWS V14.01,2013-01-10 10:13:00,
2013-01-10 05:18:00,24.8,20.7,30.50,SSE,165,0.0,0.0,84,0.00,,---,0.00,VWS V14.01,2013-01-10 10:18:00,
2013-01-10 05:20:00,24.6,20.5,30.50,SSE,165,1.0,1.0,84,0.00,,---,0.00,VWS V14.01,2013-01-10 10:20:00,
2013-01-10 05:23:00,24.7,20.8,30.51,SSE,165,1.0,3.0,85,0.00,,---,0.00,VWS V14.01,2013-01-10 10:23:00,
2013-01-10 05:28:00,24.3,20.5,30.50,SSE,165,0.0,3.0,85,0.00,,---,0.00,VWS V14.01,2013-01-10 10:28:00,
2013-01-10 05:30:00,24.3,20.5,30.50,SSE,165,0.0,3.0,85,0.00,,---,0.00,VWS V14.01,2013-01-10 10:30:00,
2013-01-10 05:33:00,24.2,20.4,30.50,SSE,165,0.0,0.0,85,0.00,,---,0.00,VWS V14.01,2013-01-10 10:33:00,
2013-01-10 05:38:00,24.0,20.1,30.49,SSE,165,0.0,0.0,85,0.00,,---,0.00,VWS V14.01,2013-01-10 10:38:00,
2013-01-10 05:40:00,24.0,20.1,30.50,SSE,165,0.0,0.0,85,0.00,,---,0.00,VWS V14.01,2013-01-10 10:40:00,
2013-01-10 05:43:00,23.9,20.1,30.50,SSE,165,0.0,0.0,85,0.00,,---,0.00,VWS V14.01,2013-01-10 10:43:00,
2013-01-10 05:48:00,23.7,19.9,30.50,SSE,165,1.0,2.0,85,0.00,,---,0.00,VWS V14.01,2013-01-10 10:48:00,
2013-01-10 05:50:00,23.7,19.9,30.50,SSE,165,1.0,2.0,85,0.00,,---,0.00,VWS V14.01,2013-01-10 10:50:00,
2013-01-10 05:53:00,23.6,19.8,30.50,SSE,165,0.0,2.0,85,0.00,,---,0.00,VWS V14.01,2013-01-10 10:53:00,
2013-01-10 05:58:00,23.3,19.5,30.50,SSE,165,2.0,2.0,85,0.00,,---,0.00,VWS V14.01,2013-01-10 10:58:00,
2013-01-10 06:00:00,23.3,19.5,30.50,SSE,165,2.0,2.0,85,0.00,,---,0.00,VWS V14.01,2013-01-10 11:00:00,
2013-01-10 06:03:00,23.4,19.8,30.49,SSE,165,0.0,2.0,86,0.00,,---,0.00,VWS V14.01,2013-01-10 11:03:00,
2013-01-10 06:08:00,23.5,19.9,30.49,SSE,165,3.0,3.0,86,0.00,,---,0.00,VWS V14.01,2013-01-10 11:08:00,
2013-01-10 06:10:00,23.5,19.9,30.49,SSE,165,2.0,3.0,86,0.00,,---,0.00,VWS V14.01,2013-01-10 11:10:00,
2013-01-10 06:13:00,23.5,19.9,30.49,SSE,165,1.0,3.0,86,0.00,,---,0.00,VWS V14.01,2013-01-10 11:13:00,
2013-01-10 06:18:00,23.5,20.2,30.50,SSE,165,2.0,3.0,87,0.00,,---,0.00,VWS V14.01,2013-01-10 11:18:00,
2013-01-10 06:20:00,23.6,20.3,30.50,SSE,165,1.0,3.0,87,0.00,,---,0.00,VWS V14.01,2013-01-10 11:20:00,
2013-01-10 06:23:00,23.6,20.3,30.50,SSE,165,1.0,4.0,87,0.00,,---,0.00,VWS V14.01,2013-01-10 11:23:00,
2013-01-10 06:28:00,23.3,19.7,30.50,SSE,165,1.0,4.0,86,0.00,,---,0.00,VWS V14.01,2013-01-10 11:28:00,
2013-01-10 06:30:00,23.3,19.7,30.49,SSE,165,2.0,4.0,86,0.00,,---,0.00,VWS V14.01,2013-01-10 11:30:00,
2013-01-10 06:33:00,23.5,20.5,30.49,SSE,165,3.0,4.0,88,0.00,,---,0.00,VWS V14.01,2013-01-10 11:33:00,
2013-01-10 06:38:00,23.7,20.7,30.50,SSE,168,2.0,4.0,88,0.00,,---,0.00,VWS V14.01,2013-01-10 11:38:00,
2013-01-10 06:40:00,23.7,20.4,30.50,South,170,3.0,4.0,87,0.00,,---,0.00,VWS V14.01,2013-01-10 11:40:00,
2013-01-10 06:43:00,23.7,20.7,30.50,South,170,2.0,4.0,88,0.00,,---,0.00,VWS V14.01,2013-01-10 11:43:00,
2013-01-10 06:49:00,24.0,21.0,30.50,South,170,4.0,4.0,88,0.00,,---,0.00,VWS V14.01,2013-01-10 11:49:00,
2013-01-10 06:50:00,24.1,20.8,30.50,South,170,2.0,5.0,87,0.00,,---,0.00,VWS V14.01,2013-01-10 11:50:00,
2013-01-10 06:53:00,23.9,20.6,30.50,SE,146,4.0,4.0,87,0.00,,---,0.00,VWS V14.01,2013-01-10 11:53:00,
2013-01-10 06:58:00,23.8,20.5,30.50,SSE,152,2.0,5.0,87,0.00,,---,0.00,VWS V14.01,2013-01-10 11:58:00,
2013-01-10 07:00:00,23.7,20.4,30.50,SSE,152,2.0,5.0,87,0.00,,---,0.00,VWS V14.01,2013-01-10 12:00:00,
2013-01-10 07:03:00,24.1,21.1,30.50,SSE,147,4.0,6.0,88,0.00,,---,0.00,VWS V14.01,2013-01-10 12:03:00,
2013-01-10 07:09:00,24.2,20.9,30.51,SSE,151,2.0,6.0,87,0.00,,---,0.02,VWS V14.01,2013-01-10 12:09:00,
2013-01-10 07:10:00,24.3,21.3,30.51,SSE,151,3.0,6.0,88,0.00,,---,0.00,VWS V14.01,2013-01-10 12:10:00,
2013-01-10 07:14:00,24.5,21.2,30.51,SSE,151,2.0,5.0,87,0.00,,---,0.00,VWS V14.01,2013-01-10 12:14:00,
2013-01-10 07:19:00,24.6,21.3,30.52,SSE,151,2.0,5.0,87,0.00,,---,0.00,VWS V14.01,2013-01-10 12:19:00,
2013-01-10 07:20:00,24.6,21.0,30.51,SSE,151,1.0,5.0,86,0.00,,---,0.00,VWS V14.01,2013-01-10 12:20:00,
2013-01-10 07:24:00,24.6,21.0,30.52,SSE,151,1.0,4.0,86,0.00,,---,0.00,VWS V14.01,2013-01-10 12:24:00,
2013-01-10 07:29:00,24.6,21.3,30.52,SSE,151,1.0,4.0,87,0.00,,---,0.00,VWS V14.01,2013-01-10 12:29:00,
2013-01-10 07:30:00,24.8,21.2,30.52,SSE,151,0.0,4.0,86,0.00,,---,0.00,VWS V14.01,2013-01-10 12:30:00,
2013-01-10 07:34:00,24.7,21.1,30.52,SSE,151,0.0,2.0,86,0.00,,---,0.00,VWS V14.01,2013-01-10 12:34:00,
2013-01-10 07:39:00,24.5,20.9,30.52,SSE,151,0.0,2.0,86,0.00,,---,0.00,VWS V14.01,2013-01-10 12:39:00,
2013-01-10 07:40:00,24.5,20.9,30.52,SSE,151,0.0,2.0,86,0.00,,---,0.00,VWS V14.01,2013-01-10 12:40:00,
2013-01-10 07:44:00,24.2,20.4,30.52,SSE,151,2.0,3.0,85,0.00,,---,0.00,VWS V14.01,2013-01-10 12:44:00,
2013-01-10 07:49:00,24.0,20.4,30.52,SSE,151,0.0,3.0,86,0.00,,---,0.00,VWS V14.01,2013-01-10 12:49:00,
2013-01-10 07:50:00,24.0,20.4,30.51,SSE,151,0.0,3.0,86,0.00,,---,0.00,VWS V14.01,2013-01-10 12:50:00,
2013-01-10 07:54:00,23.9,20.3,30.51,SSE,151,0.0,0.0,86,0.00,,---,0.00,VWS V14.01,2013-01-10 12:54:00,
2013-01-10 07:59:00,23.9,20.3,30.52,SSE,151,0.0,0.0,86,0.00,,---,0.00,VWS V14.01,2013-01-10 12:59:00,
2013-01-10 08:00:00,23.9,20.1,30.51,SSE,151,0.0,0.0,85,0.00,,---,0.00,VWS V14.01,2013-01-10 13:00:00,
2013-01-10 08:04:00,23.7,20.1,30.52,SSE,151,0.0,2.0,86,0.00,,---,0.00,VWS V14.01,2013-01-10 13:04:00,
2013-01-10 08:09:00,23.5,19.9,30.52,SSE,151,0.0,2.0,86,0.00,,---,0.00,VWS V14.01,2013-01-10 13:09:00,
2013-01-10 08:10:00,23.5,19.9,30.52,SSE,151,0.0,2.0,86,0.00,,---,0.00,VWS V14.01,2013-01-10 13:10:00,
2013-01-10 08:14:00,23.4,19.8,30.52,SSE,151,0.0,2.0,86,0.00,,---,0.00,VWS V14.01,2013-01-10 13:14:00,
2013-01-10 08:19:00,23.3,19.7,30.53,SSE,151,0.0,2.0,86,0.00,,---,0.00,VWS V14.01,2013-01-10 13:19:00,
2013-01-10 08:20:00,23.3,19.5,30.53,SSE,151,0.0,2.0,85,0.00,,---,0.00,VWS V14.01,2013-01-10 13:20:00,
2013-01-10 08:24:00,23.2,19.6,30.53,SSE,151,1.0,1.0,86,0.00,,---,0.00,VWS V14.01,2013-01-10 13:24:00,
2013-01-10 08:29:00,23.2,19.9,30.53,SSE,151,1.0,3.0,87,0.00,,---,0.00,VWS V14.01,2013-01-10 13:29:00,
2013-01-10 08:30:00,23.2,19.9,30.53,SSE,151,1.0,3.0,87,0.00,,---,0.00,VWS V14.01,2013-01-10 13:30:00,
2013-01-10 08:34:00,23.2,19.6,30.52,SSE,151,2.0,3.0,86,0.00,,---,0.00,VWS V14.01,2013-01-10 13:34:00,
2013-01-10 08:39:00,23.2,19.9,30.53,SSE,151,3.0,4.0,87,0.00,,---,0.00,VWS V14.01,2013-01-10 13:39:00,
2013-01-10 08:40:00,23.2,19.9,30.52,SSE,151,1.0,4.0,87,0.00,,---,0.00,VWS V14.01,2013-01-10 13:40:00,
2013-01-10 08:44:00,23.3,20.3,30.52,SSE,151,3.0,4.0,88,0.00,,---,0.00,VWS V14.01,2013-01-10 13:44:00,
2013-01-10 08:49:00,23.6,20.3,30.52,SSE,157,2.0,5.0,87,0.00,,---,0.00,VWS V14.01,2013-01-10 13:49:00,
2013-01-10 08:50:00,23.5,20.2,30.52,SE,139,1.0,5.0,87,0.00,,---,0.00,VWS V14.01,2013-01-10 13:50:00,
2013-01-10 08:54:00,23.5,20.2,30.52,SE,131,2.0,3.0,87,0.00,,---,0.00,VWS V14.01,2013-01-10 13:54:00,
2013-01-10 08:59:00,23.7,20.4,30.52,SE,131,2.0,4.0,87,0.00,,---,0.00,VWS V14.01,2013-01-10 13:59:00,
2013-01-10 09:00:00,23.8,20.8,30.52,SE,131,1.0,4.0,88,0.00,,---,0.00,VWS V14.01,2013-01-10 14:00:00,
2013-01-10 09:04:00,24.0,21.0,30.52,SE,143,1.0,4.0,88,0.00,,---,0.00,VWS V14.01,2013-01-10 14:04:00,
2013-01-10 09:09:00,24.2,21.2,30.52,SE,145,4.0,5.0,88,0.00,,---,0.00,VWS V14.01,2013-01-10 14:09:00,
2013-01-10 09:10:00,24.2,20.9,30.51,SE,145,2.0,5.0,87,0.00,,---,0.00,VWS V14.01,2013-01-10 14:10:00,
2013-01-10 09:14:00,24.3,21.3,30.51,SE,145,3.0,3.0,88,0.00,,---,0.00,VWS V14.01,2013-01-10 14:14:00,
2013-01-10 09:19:00,24.6,21.6,30.50,SE,145,2.0,4.0,88,0.00,,---,0.00,VWS V14.01,2013-01-10 14:19:00,
2013-01-10 09:20:00,24.6,21.3,30.50,SE,145,1.0,4.0,87,0.00,,---,0.00,VWS V14.01,2013-01-10 14:20:00,
2013-01-10 09:24:00,24.8,21.5,30.50,SE,145,0.0,3.0,87,0.00,,---,0.00,VWS V14.01,2013-01-10 14:24:00,
2013-01-10 09:29:00,24.9,21.6,30.51,SE,145,2.0,3.0,87,0.00,,---,0.00,VWS V14.01,2013-01-10 14:29:00,
2013-01-10 09:30:00,24.9,21.6,30.50,SE,145,0.0,3.0,87,0.00,,---,0.00,VWS V14.01,2013-01-10 14:30:00,
2013-01-10 09:34:00,25.2,21.9,30.50,SSE,149,1.0,5.0,87,0.00,,---,0.00,VWS V14.01,2013-01-10 14:34:00,
2013-01-10 09:39:00,25.5,22.2,30.50,SSE,157,1.0,5.0,87,0.00,,---,0.00,VWS V14.01,2013-01-10 14:39:00,
2013-01-10 09:40:00,25.5,22.2,30.50,SSE,157,0.0,5.0,87,0.00,,---,0.00,VWS V14.01,2013-01-10 14:40:00,
2013-01-10 09:44:00,25.8,22.2,30.50,SSE,157,1.0,4.0,86,0.00,,---,0.00,VWS V14.01,2013-01-10 14:44:00,
2013-01-10 09:49:00,26.5,23.2,30.50,SSE,167,2.0,7.0,87,0.00,,---,0.00,VWS V14.01,2013-01-10 14:49:00,
2013-01-10 09:50:00,26.6,23.3,30.50,SSE,168,2.0,7.0,87,0.00,,---,0.00,VWS V14.01,2013-01-10 14:50:00,
2013-01-10 09:54:00,27.5,23.9,30.50,South,189,1.0,7.0,86,0.00,,---,0.00,VWS V14.01,2013-01-10 14:54:00,
2013-01-10 09:59:00,28.2,24.6,30.50,SSE,162,2.0,7.0,86,0.00,,---,0.00,VWS V14.01,2013-01-10 14:59:00,
2013-01-10 10:00:00,28.2,24.6,30.50,SSE,162,2.0,7.0,86,0.00,,---,0.00,VWS V14.01,2013-01-10 15:00:00,
2013-01-10 10:04:00,28.8,24.6,30.50,SE,127,4.0,6.0,84,0.00,,---,0.00,VWS V14.01,2013-01-10 15:04:00,
2013-01-10 10:09:00,29.1,24.6,30.50,South,171,3.0,6.0,83,0.00,,---,0.00,VWS V14.01,2013-01-10 15:09:00,
2013-01-10 10:10:00,29.3,24.8,30.50,South,172,2.0,6.0,83,0.00,,---,0.00,VWS V14.01,2013-01-10 15:10:00,
2013-01-10 10:14:00,29.6,25.1,30.50,South,179,1.0,5.0,83,0.00,,---,0.00,VWS V14.01,2013-01-10 15:14:00,
2013-01-10 10:19:00,30.0,25.2,30.50,SSE,168,2.0,6.0,82,0.00,,---,0.00,VWS V14.01,2013-01-10 15:19:00,
2013-01-10 10:20:00,30.2,25.4,30.50,SSE,168,3.0,6.0,82,0.00,,---,0.00,VWS V14.01,2013-01-10 15:20:00,
2013-01-10 10:24:00,30.6,25.5,30.50,South,183,1.0,6.0,81,0.00,,---,0.00,VWS V14.01,2013-01-10 15:24:00,
2013-01-10 10:29:00,31.0,25.9,30.50,South,177,2.0,6.0,81,0.00,,---,0.00,VWS V14.01,2013-01-10 15:29:00,
2013-01-10 10:30:00,31.0,25.6,30.50,SSW,192,6.0,6.0,80,0.00,,---,0.00,VWS V14.01,2013-01-10 15:30:00,
2013-01-10 10:34:00,31.3,25.6,30.49,SSW,195,2.0,7.0,79,0.00,,---,0.00,VWS V14.01,2013-01-10 15:34:00,
2013-01-10 10:39:00,31.8,26.0,30.49,South,182,4.0,7.0,79,0.01,,---,0.01,VWS V14.01,2013-01-10 15:39:00,
2013-01-10 10:40:00,31.8,26.0,30.49,South,170,3.0,7.0,79,0.01,,---,0.01,VWS V14.01,2013-01-10 15:40:00,
2013-01-10 10:44:00,32.3,26.2,30.49,SSE,154,0.0,4.0,78,0.01,,---,0.01,VWS V14.01,2013-01-10 15:44:00,
2013-01-10 10:49:00,32.8,26.4,30.49,South,184,4.0,7.0,77,0.01,,---,0.01,VWS V14.01,2013-01-10 15:49:00,
2013-01-10 10:50:00,32.8,26.4,30.49,South,185,4.0,7.0,77,0.01,,---,0.01,VWS V14.01,2013-01-10 15:50:00,
2013-01-10 10:54:00,33.2,26.5,30.49,South,185,5.0,6.0,76,0.01,,---,0.01,VWS V14.01,2013-01-10 15:54:00,
2013-01-10 11:00:00,33.4,26.7,30.49,South,175,4.0,7.0,76,0.01,,---,0.01,VWS V14.01,2013-01-10 16:00:00,
2013-01-10 11:05:00,33.8,26.7,30.49,South,185,3.0,9.0,75,0.01,,---,0.01,VWS V14.01,2013-01-10 16:05:00,
2013-01-10 11:09:00,33.9,26.8,30.49,SSW,206,5.0,9.0,75,0.01,,---,0.01,VWS V14.01,2013-01-10 16:09:00,
2013-01-10 11:10:00,33.9,26.8,30.49,SSW,208,4.0,9.0,75,0.01,,---,0.01,VWS V14.01,2013-01-10 16:10:00,
2013-01-10 11:14:00,34.2,26.8,30.49,SSE,156,5.0,7.0,74,0.01,,---,0.01,VWS V14.01,2013-01-10 16:14:00,
2013-01-10 11:20:00,34.5,26.8,30.49,South,184,5.0,7.0,73,0.01,,---,0.01,VWS V14.01,2013-01-10 16:20:00,
2013-01-10 11:25:00,34.7,27.0,30.49,South,184,2.0,6.0,73,0.01,,---,0.01,VWS V14.01,2013-01-10 16:25:00,
2013-01-10 11:30:00,35.2,27.1,30.48,SSE,157,4.0,7.0,72,0.01,,---,0.01,VWS V14.01,2013-01-10 16:30:00,
2013-01-10 11:35:00,35.8,27.7,30.48,SSE,161,0.0,5.0,72,0.01,,---,0.01,VWS V14.01,2013-01-10 16:35:00,
2013-01-10 11:40:00,36.2,27.7,30.47,SSE,167,4.0,6.0,71,0.02,,---,0.02,VWS V14.01,2013-01-10 16:40:00,
2013-01-10 11:45:00,36.5,27.7,30.47,South,185,3.0,7.0,70,0.01,,---,0.02,VWS V14.01,2013-01-10 16:45:00,
2013-01-10 11:50:00,36.9,27.7,30.47,South,187,0.0,14.0,69,0.01,,---,0.02,VWS V14.01,2013-01-10 16:50:00,
2013-01-10 11:55:00,37.3,27.7,30.47,South,175,1.0,8.0,68,0.01,,---,0.02,VWS V14.01,2013-01-10 16:55:00,
2013-01-10 12:00:00,37.5,27.2,30.47,South,191,5.0,6.0,66,0.01,,---,0.02,VWS V14.01,2013-01-10 17:00:00,
2013-01-10 12:05:00,37.6,26.9,30.47,South,173,5.0,7.0,65,0.01,,---,0.02,VWS V14.01,2013-01-10 17:05:00,
2013-01-10 12:10:00,37.9,26.8,30.47,SSW,193,7.0,7.0,64,0.02,,---,0.03,VWS V14.01,2013-01-10 17:10:00,
2013-01-10 12:15:00,38.2,26.3,30.46,SSW,199,6.0,9.0,62,0.02,,---,0.03,VWS V14.01,2013-01-10 17:15:00,
2013-01-10 12:20:00,38.5,26.6,30.46,SSW,211,1.0,2.0,62,0.02,,---,0.03,VWS V14.01,2013-01-10 17:20:00,
2013-01-10 12:25:00,38.8,26.5,30.46,South,185,3.0,8.0,61,0.02,,---,0.03,VWS V14.01,2013-01-10 17:25:00,
2013-01-10 12:30:00,39.2,26.5,30.46,SW,227,2.0,2.0,60,0.02,,---,0.03,VWS V14.01,2013-01-10 17:30:00,
2013-01-10 12:35:00,39.3,26.6,30.45,SW,215,1.0,7.0,60,0.02,,---,0.03,VWS V14.01,2013-01-10 17:35:00,
2013-01-10 12:40:00,39.4,26.3,30.45,South,190,3.0,5.0,59,0.01,,---,0.03,VWS V14.01,2013-01-10 17:40:00,
2013-01-10 12:45:00,39.3,26.2,30.44,South,181,4.0,6.0,59,0.01,,---,0.03,VWS V14.01,2013-01-10 17:45:00,
2013-01-10 12:50:00,39.2,26.1,30.44,SSE,165,4.0,6.0,59,0.01,,---,0.03,VWS V14.01,2013-01-10 17:50:00,
2013-01-10 12:55:00,39.3,26.2,30.44,South,180,4.0,7.0,59,0.02,,---,0.04,VWS V14.01,2013-01-10 17:55:00,
2013-01-10 13:00:00,39.5,26.4,30.44,SSW,194,3.0,5.0,59,0.02,,---,0.04,VWS V14.01,2013-01-10 18:00:00,
2013-01-10 13:05:00,39.6,26.1,30.44,SSW,195,5.0,7.0,58,0.02,,---,0.04,VWS V14.01,2013-01-10 18:05:00,
2013-01-10 13:10:00,39.8,25.8,30.43,SSE,157,2.0,2.0,57,0.01,,---,0.04,VWS V14.01,2013-01-10 18:10:00,
2013-01-10 13:15:00,40.0,26.4,30.43,SSE,153,1.0,3.0,58,0.01,,---,0.04,VWS V14.01,2013-01-10 18:15:00,
2013-01-10 13:20:00,40.6,25.7,30.43,South,171,2.0,5.0,55,0.01,,---,0.04,VWS V14.01,2013-01-10 18:20:00,
2013-01-10 13:25:00,40.6,25.7,30.42,SSE,156,2.0,6.0,55,0.01,,---,0.04,VWS V14.01,2013-01-10 18:25:00,
2013-01-10 13:30:00,40.7,25.4,30.43,SSW,195,3.0,6.0,54,0.01,,---,0.04,VWS V14.01,2013-01-10 18:30:00,
2013-01-10 13:35:00,40.9,25.5,30.42,SW,215,4.0,9.0,54,0.01,,---,0.04,VWS V14.01,2013-01-10 18:35:00,
2013-01-10 13:40:00,41.0,25.6,30.42,SSW,212,3.0,5.0,54,0.02,,---,0.05,VWS V14.01,2013-01-10 18:40:00,
2013-01-10 13:45:00,41.0,25.2,30.42,South,174,1.0,7.0,53,0.02,,---,0.05,VWS V14.01,2013-01-10 18:45:00,
2013-01-10 13:50:00,41.2,25.8,30.41,South,191,6.0,6.0,54,0.02,,---,0.05,VWS V14.01,2013-01-10 18:50:00,
2013-01-10 13:55:00,41.2,24.9,30.41,South,186,4.0,7.0,52,0.02,,---,0.05,VWS V14.01,2013-01-10 18:55:00,
2013-01-10 14:00:00,41.5,26.1,30.40,SSE,162,1.0,3.0,54,0.01,,---,0.05,VWS V14.01,2013-01-10 19:00:00,
2013-01-10 14:05:00,41.6,26.2,30.40,ESE,123,1.0,3.0,54,0.01,,---,0.05,VWS V14.01,2013-01-10 19:05:00,
2013-01-10 14:10:00,41.6,24.8,30.40,South,170,5.0,5.0,51,0.01,,---,0.05,VWS V14.01,2013-01-10 19:10:00,
2013-01-10 14:15:00,41.8,25.0,30.39,SE,143,2.0,5.0,51,0.01,,---,0.05,VWS V14.01,2013-01-10 19:15:00,
2013-01-10 14:20:00,41.9,25.6,30.39,ESE,108,1.0,3.0,52,0.01,,---,0.05,VWS V14.01,2013-01-10 19:20:00,
2013-01-10 14:26:00,42.0,25.7,30.39,SSE,160,1.0,5.0,52,0.01,,---,0.05,VWS V14.01,2013-01-10 19:26:00,
2013-01-10 14:30:00,42.2,25.4,30.39,South,171,3.0,6.0,51,0.01,,---,0.05,VWS V14.01,2013-01-10 19:30:00,
2013-01-10 14:31:00,42.0,25.7,30.39,South,174,3.0,4.0,52,0.01,,---,0.05,VWS V14.01,2013-01-10 19:31:00,
2013-01-10 14:36:00,42.0,25.2,30.38,SSE,165,0.0,4.0,51,0.01,,---,0.05,VWS V14.01,2013-01-10 19:36:00,
2013-01-10 14:40:00,42.0,25.7,30.38,SSE,165,0.0,4.0,52,0.01,,---,0.05,VWS V14.01,2013-01-10 19:40:00,
2013-01-10 14:41:00,42.0,26.1,30.39,SSE,165,1.0,3.0,53,0.00,,---,0.05,VWS V14.01,2013-01-10 19:41:00,
2013-01-10 14:46:00,41.9,26.0,30.38,SSE,165,0.0,3.0,53,0.01,,---,0.06,VWS V14.01,2013-01-10 19:46:00,
2013-01-10 14:50:00,41.7,25.4,30.38,SSE,165,0.0,3.0,52,0.01,,---,0.06,VWS V14.01,2013-01-10 19:50:00,
2013-01-10 14:51:00,41.7,25.4,30.38,SSE,165,0.0,2.0,52,0.01,,---,0.06,VWS V14.01,2013-01-10 19:51:00,
2013-01-10 14:56:00,41.9,26.0,30.37,SSE,165,0.0,3.0,53,0.01,,---,0.06,VWS V14.01,2013-01-10 19:56:00,
2013-01-10 15:00:00,41.7,25.4,30.37,SSE,165,1.0,4.0,52,0.01,,---,0.06,VWS V14.01,2013-01-10 20:00:00,
2013-01-10 15:01:00,41.7,25.4,30.37,SSE,165,0.0,1.0,52,0.01,,---,0.06,VWS V14.01,2013-01-10 20:01:00,
2013-01-10 15:06:00,41.6,25.3,30.38,SSE,165,0.0,2.0,52,0.01,,---,0.06,VWS V14.01,2013-01-10 20:06:00,
2013-01-10 15:10:00,41.5,25.2,30.37,SSE,165,0.0,2.0,52,0.01,,---,0.06,VWS V14.01,2013-01-10 20:10:00,
2013-01-10 15:11:00,41.5,24.7,30.37,SSE,165,0.0,0.0,51,0.01,,---,0.06,VWS V14.01,2013-01-10 20:11:00,
2013-01-10 15:16:00,41.8,25.0,30.37,SSE,165,0.0,0.0,51,0.01,,---,0.06,VWS V14.01,2013-01-10 20:16:00,
2013-01-10 15:20:00,41.9,24.6,30.37,SSE,165,1.0,2.0,50,0.01,,---,0.06,VWS V14.01,2013-01-10 20:20:00,
2013-01-10 15:21:00,41.9,24.6,30.37,SSE,165,1.0,2.0,50,0.01,,---,0.06,VWS V14.01,2013-01-10 20:21:00,
2013-01-10 15:26:00,42.0,24.2,30.37,SE,142,2.0,3.0,49,0.01,,---,0.06,VWS V14.01,2013-01-10 20:26:00,
2013-01-10 15:30:00,42.2,24.9,30.37,SE,142,2.0,4.0,50,0.01,,---,0.06,VWS V14.01,2013-01-10 20:30:00,
2013-01-10 15:31:00,42.2,24.9,30.37,SE,141,0.0,2.0,50,0.01,,---,0.06,VWS V14.01,2013-01-10 20:31:00,
2013-01-10 15:36:00,42.0,24.7,30.36,SE,138,0.0,3.0,50,0.01,,---,0.06,VWS V14.01,2013-01-10 20:36:00,
2013-01-10 15:40:00,41.6,24.4,30.36,ESE,107,1.0,3.0,50,0.01,,---,0.06,VWS V14.01,2013-01-10 20:40:00,
2013-01-10 15:41:00,41.5,24.3,30.36,ESE,107,0.0,3.0,50,0.01,,---,0.06,VWS V14.01,2013-01-10 20:41:00,
2013-01-10 15:46:00,41.2,24.5,30.35,ESE,114,0.0,4.0,51,0.01,,---,0.06,VWS V14.01,2013-01-10 20:46:00,
2013-01-10 15:50:00,40.9,24.6,30.36,ESE,114,1.0,4.0,52,0.01,,---,0.06,VWS V14.01,2013-01-10 20:50:00,
2013-01-10 15:51:00,40.7,24.5,30.35,ESE,114,0.0,3.0,52,0.00,,---,0.06,VWS V14.01,2013-01-10 20:51:00,
2013-01-10 15:56:00,40.6,25.3,30.35,ESE,112,1.0,4.0,54,0.00,,---,0.06,VWS V14.01,2013-01-10 20:56:00,
2013-01-10 16:00:00,40.3,25.4,30.35,ESE,112,0.0,4.0,55,0.00,,---,0.06,VWS V14.01,2013-01-10 21:00:00,
2013-01-10 16:01:00,40.2,25.3,30.35,ESE,112,0.0,0.0,55,0.00,,---,0.06,VWS V14.01,2013-01-10 21:01:00,
2013-01-10 16:06:00,39.9,25.1,30.34,ESE,107,1.0,4.0,55,0.00,,---,0.06,VWS V14.01,2013-01-10 21:06:00,
2013-01-10 16:10:00,39.6,24.8,30.34,SE,141,3.0,4.0,55,0.00,,---,0.06,VWS V14.01,2013-01-10 21:10:00,
2013-01-10 16:11:00,39.6,25.2,30.34,SE,142,0.0,3.0,56,0.00,,---,0.06,VWS V14.01,2013-01-10 21:11:00,
2013-01-10 16:16:00,39.3,25.4,30.35,SE,135,0.0,3.0,57,0.00,,---,0.06,VWS V14.01,2013-01-10 21:16:00,
2013-01-10 16:20:00,39.0,25.5,30.35,SE,136,0.0,3.0,58,0.01,,---,0.07,VWS V14.01,2013-01-10 21:20:00,
2013-01-10 16:21:00,38.9,25.4,30.35,SE,136,0.0,0.0,58,0.01,,---,0.07,VWS V14.01,2013-01-10 21:21:00,
2013-01-10 16:26:00,38.6,25.5,30.35,SE,142,1.0,3.0,59,0.01,,---,0.07,VWS V14.01,2013-01-10 21:26:00,
2013-01-10 16:30:00,38.3,24.8,30.34,SE,142,0.0,3.0,58,0.01,,---,0.07,VWS V14.01,2013-01-10 21:30:00,
2013-01-10 16:31:00,38.3,25.2,30.34,SE,143,1.0,3.0,59,0.01,,---,0.02,VWS V14.01,2013-01-10 21:31:00,
2013-01-10 16:36:00,38.5,24.6,30.33,SE,141,0.0,3.0,57,0.01,,---,0.07,VWS V14.01,2013-01-10 21:36:00,
2013-01-10 16:40:00,38.5,25.0,30.34,ESE,113,0.0,3.0,58,0.01,,---,0.07,VWS V14.01,2013-01-10 21:40:00,
2013-01-10 16:41:00,38.5,25.4,30.33,ESE,111,0.0,0.0,59,0.01,,---,0.07,VWS V14.01,2013-01-10 21:41:00,
2013-01-10 16:46:00,38.3,24.8,30.34,ESE,110,1.0,2.0,58,0.01,,---,0.07,VWS V14.01,2013-01-10 21:46:00,
2013-01-10 16:50:00,38.2,24.7,30.34,ESE,111,0.0,3.0,58,0.01,,---,0.07,VWS V14.01,2013-01-10 21:50:00,
2013-01-10 16:51:00,38.2,25.1,30.34,ESE,109,1.0,2.0,59,0.01,,---,0.07,VWS V14.01,2013-01-10 21:51:00,
2013-01-10 16:56:00,38.0,25.0,30.33,ESE,118,0.0,3.0,59,0.01,,---,0.07,VWS V14.01,2013-01-10 21:56:00,
2013-01-10 17:00:00,37.9,24.9,30.33,ESE,119,0.0,3.0,59,0.01,,---,0.07,VWS V14.01,2013-01-10 22:00:00,
2013-01-10 17:01:00,37.8,24.8,30.33,ESE,119,0.0,0.0,59,0.01,,---,0.07,VWS V14.01,2013-01-10 22:01:00,
2013-01-10 17:06:00,37.5,24.9,30.34,ESE,116,0.0,0.0,60,0.01,,---,0.07,VWS V14.01,2013-01-10 22:06:00,
2013-01-10 17:10:00,37.3,24.7,30.33,ESE,117,0.0,0.0,60,0.01,,---,0.07,VWS V14.01,2013-01-10 22:10:00,
2013-01-10 17:11:00,37.2,24.6,30.33,ESE,119,0.0,3.0,60,0.01,,---,0.07,VWS V14.01,2013-01-10 22:11:00,
2013-01-10 17:17:00,36.9,24.3,30.34,ESE,118,0.0,3.0,60,0.01,,---,0.07,VWS V14.01,2013-01-10 22:17:00,
2013-01-10 17:20:00,36.7,24.5,30.33,ESE,117,0.0,3.0,61,0.01,,---,0.07,VWS V14.01,2013-01-10 22:20:00,
2013-01-10 17:22:00,36.6,24.4,30.33,ESE,119,0.0,0.0,61,0.00,,---,0.07,VWS V14.01,2013-01-10 22:22:00,
2013-01-10 17:27:00,36.3,24.5,30.34,ESE,117,0.0,0.0,62,0.00,,---,0.07,VWS V14.01,2013-01-10 22:27:00,
2013-01-10 17:30:00,36.2,24.5,30.33,ESE,116,0.0,0.0,62,0.00,,---,0.07,VWS V14.01,2013-01-10 22:30:00,
2013-01-10 17:32:00,36.2,24.5,30.33,ESE,118,0.0,0.0,62,0.00,,---,0.07,VWS V14.01,2013-01-10 22:32:00,
2013-01-10 17:37:00,36.0,24.3,30.33,ESE,115,0.0,0.0,62,0.00,,---,0.07,VWS V14.01,2013-01-10 22:37:00,
2013-01-10 17:40:00,36.0,24.6,30.33,ESE,116,0.0,0.0,63,0.00,,---,0.07,VWS V14.01,2013-01-10 22:40:00,
2013-01-10 17:42:00,35.9,24.5,30.33,ESE,115,0.0,0.0,63,0.00,,---,0.07,VWS V14.01,2013-01-10 22:42:00,
2013-01-10 17:47:00,35.8,24.8,30.33,ESE,117,0.0,1.0,64,0.00,,---,0.07,VWS V14.01,2013-01-10 22:47:00,
2013-01-10 17:50:00,35.5,24.5,30.32,ESE,117,0.0,1.0,64,0.00,,---,0.07,VWS V14.01,2013-01-10 22:50:00,
2013-01-10 17:52:00,35.3,24.7,30.32,ESE,117,0.0,0.0,65,0.00,,---,0.07,VWS V14.01,2013-01-10 22:52:00,
2013-01-10 17:57:00,34.7,24.5,30.32,ESE,117,0.0,1.0,66,0.00,,---,0.07,VWS V14.01,2013-01-10 22:57:00,
2013-01-10 18:00:00,34.6,24.4,30.32,ESE,117,0.0,1.0,66,0.00,,---,0.07,VWS V14.01,2013-01-10 23:00:00,
2013-01-10 18:02:00,34.6,24.4,30.32,ESE,117,0.0,0.0,66,0.00,,---,0.07,VWS V14.01,2013-01-10 23:02:00,
2013-01-10 18:07:00,34.6,24.4,30.32,ESE,116,0.0,0.0,66,0.00,,---,0.07,VWS V14.01,2013-01-10 23:07:00,
2013-01-10 18:10:00,34.6,24.4,30.32,ESE,116,0.0,0.0,66,0.00,,---,0.07,VWS V14.01,2013-01-10 23:10:00,
2013-01-10 18:12:00,34.7,24.5,30.32,ESE,116,0.0,0.0,66,0.00,,---,0.07,VWS V14.01,2013-01-10 23:12:00,
2013-01-10 18:17:00,34.9,24.7,30.32,ESE,116,0.0,0.0,66,0.00,,---,0.07,VWS V14.01,2013-01-10 23:17:00,
2013-01-10 18:20:00,34.9,24.7,30.32,ESE,116,0.0,0.0,66,0.00,,---,0.07,VWS V14.01,2013-01-10 23:20:00,
2013-01-10 18:22:00,34.9,25.1,30.32,ESE,115,0.0,0.0,67,0.00,,---,0.07,VWS V14.01,2013-01-10 23:22:00,
2013-01-10 18:27:00,34.9,24.7,30.32,ESE,115,0.0,2.0,66,0.00,,---,0.07,VWS V14.01,2013-01-10 23:27:00,
2013-01-10 18:30:00,35.0,24.8,30.32,ESE,115,0.0,2.0,66,0.00,,---,0.07,VWS V14.01,2013-01-10 23:30:00,
2013-01-10 18:32:00,35.0,24.8,30.32,ESE,116,0.0,0.0,66,0.00,,---,0.07,VWS V14.01,2013-01-10 23:32:00,
2013-01-10 18:37:00,35.0,25.2,30.31,ESE,116,2.0,2.0,67,0.00,,---,0.07,VWS V14.01,2013-01-10 23:37:00,
2013-01-10 18:40:00,35.2,25.4,30.31,ESE,116,0.0,3.0,67,0.00,,---,0.07,VWS V14.01,2013-01-10 23:40:00,
2013-01-10 18:42:00,35.3,25.5,30.31,ESE,116,0.0,0.0,67,0.00,,---,0.07,VWS V14.01,2013-01-10 23:42:00,
2013-01-10 18:47:00,35.3,25.5,30.31,ESE,116,0.0,0.0,67,0.00,,---,0.07,VWS V14.01,2013-01-10 23:47:00,
2013-01-10 18:50:00,35.3,25.5,30.30,ESE,116,0.0,0.0,67,0.00,,---,0.07,VWS V14.01,2013-01-10 23:50:00,
2013-01-10 18:52:00,35.3,25.1,30.30,ESE,116,0.0,2.0,66,0.00,,---,0.07,VWS V14.01,2013-01-10 23:52:00,
2013-01-10 18:57:00,35.5,25.3,30.30,SE,126,0.0,3.0,66,0.00,,---,0.07,VWS V14.01,2013-01-10 23:57:00,
2013-01-10 19:00:00,35.6,25.4,30.30,SE,125,0.0,3.0,66,0.00,,---,0.07,VWS V14.01,2013-01-11 00:00:00,
2013-01-10 19:02:00,35.8,25.6,30.29,SE,125,0.0,0.0,66,0.00,,---,0.07,VWS V14.01,2013-01-11 00:02:00,
2013-01-10 19:07:00,35.8,25.6,30.29,SE,125,0.0,1.0,66,0.00,,---,0.07,VWS V14.01,2013-01-11 00:07:00,
2013-01-10 19:10:00,35.8,25.2,30.29,SE,125,0.0,1.0,65,0.00,,---,0.07,VWS V14.01,2013-01-11 00:10:00,
2013-01-10 19:12:00,35.6,25.0,30.29,SE,125,0.0,0.0,65,0.00,,---,0.07,VWS V14.01,2013-01-11 00:12:00,
2013-01-10 19:17:00,35.5,25.3,30.29,SE,126,0.0,0.0,66,0.00,,---,0.07,VWS V14.01,2013-01-11 00:17:00,
2013-01-10 19:20:00,35.5,25.3,30.28,SE,126,0.0,0.0,66,0.00,,---,0.07,VWS V14.01,2013-01-11 00:20:00,
2013-01-10 19:22:00,35.5,25.3,30.29,SE,126,0.0,0.0,66,0.00,,---,0.07,VWS V14.01,2013-01-11 00:22:00,
2013-01-10 19:27:00,35.2,25.0,30.28,SE,127,0.0,0.0,66,0.00,,---,0.07,VWS V14.01,2013-01-11 00:27:00,
2013-01-10 19:30:00,35.2,25.4,30.28,SE,127,1.0,1.0,67,0.00,,---,0.07,VWS V14.01,2013-01-11 00:30:00,
2013-01-10 19:32:00,35.3,25.5,30.28,SE,128,0.0,2.0,67,0.00,,---,0.07,VWS V14.01,2013-01-11 00:32:00,
2013-01-10 19:37:00,35.7,25.5,30.28,SE,131,0.0,4.0,66,0.00,,---,0.07,VWS V14.01,2013-01-11 00:37:00,
2013-01-10 19:40:00,35.9,25.7,30.28,SE,130,0.0,4.0,66,0.00,,---,0.07,VWS V14.01,2013-01-11 00:40:00,
2013-01-10 19:42:00,35.9,25.7,30.28,SE,130,0.0,0.0,66,0.00,,---,0.07,VWS V14.01,2013-01-11 00:42:00,
2013-01-10 19:47:00,35.9,26.0,30.27,SE,130,0.0,2.0,67,0.00,,---,0.07,VWS V14.01,2013-01-11 00:47:00,
2013-01-10 19:50:00,35.9,25.7,30.27,SE,130,0.0,2.0,66,0.00,,---,0.07,VWS V14.01,2013-01-11 00:50:00,
2013-01-10 19:52:00,35.9,26.0,30.27,SE,130,0.0,0.0,67,0.00,,---,0.07,VWS V14.01,2013-01-11 00:52:00,
2013-01-10 19:57:00,35.8,25.6,30.26,SE,130,1.0,1.0,66,0.00,,---,0.07,VWS V14.01,2013-01-11 00:57:00,
2013-01-10 20:00:00,35.8,25.9,30.26,SE,130,0.0,2.0,67,0.00,,---,0.07,VWS V14.01,2013-01-11 01:00:00,
2013-01-10 20:02:00,35.8,25.6,30.26,SE,133,0.0,4.0,66,0.00,,---,0.07,VWS V14.01,2013-01-11 01:02:00,
2013-01-10 20:07:00,35.9,25.7,30.26,SE,133,1.0,4.0,66,0.00,,---,0.07,VWS V14.01,2013-01-11 01:07:00,
2013-01-10 20:10:00,36.0,25.8,30.25,SE,133,0.0,4.0,66,0.00,,---,0.07,VWS V14.01,2013-01-11 01:10:00,
2013-01-10 20:12:00,36.0,25.8,30.26,SE,134,0.0,1.0,66,0.00,,---,0.07,VWS V14.01,2013-01-11 01:12:00,
2013-01-10 20:17:00,36.2,25.6,30.25,ESE,119,0.0,5.0,65,0.00,,---,0.07,VWS V14.01,2013-01-11 01:17:00,
2013-01-10 20:20:00,36.2,25.6,30.25,ESE,118,1.0,5.0,65,0.00,,---,0.07,VWS V14.01,2013-01-11 01:20:00,
2013-01-10 20:22:00,36.2,25.6,30.25,ESE,118,0.0,2.0,65,0.00,,---,0.07,VWS V14.01,2013-01-11 01:22:00,
2013-01-10 20:27:00,36.4,25.8,30.25,SE,135,0.0,5.0,65,0.00,,---,0.07,VWS V14.01,2013-01-11 01:27:00,
2013-01-10 20:30:00,36.4,25.4,30.24,SSE,149,1.0,5.0,64,0.00,,---,0.07,VWS V14.01,2013-01-11 01:30:00,
2013-01-10 20:32:00,36.6,25.6,30.24,SSE,149,0.0,1.0,64,0.00,,---,0.07,VWS V14.01,2013-01-11 01:32:00,
2013-01-10 20:37:00,36.6,25.6,30.24,ESE,121,1.0,4.0,64,0.01,,---,0.08,VWS V14.01,2013-01-11 01:37:00,
2013-01-10 20:40:00,36.7,25.7,30.24,East,98,0.0,5.0,64,0.01,,---,0.08,VWS V14.01,2013-01-11 01:40:00,
2013-01-10 20:42:00,36.7,25.7,30.23,South,191,2.0,4.0,64,0.01,,---,0.08,VWS V14.01,2013-01-11 01:42:00,
2013-01-10 20:47:00,36.9,25.5,30.23,SSE,160,0.0,6.0,63,0.01,,---,0.08,VWS V14.01,2013-01-11 01:47:00,
2013-01-10 20:50:00,37.0,25.2,30.23,South,173,0.0,6.0,62,0.01,,---,0.08,VWS V14.01,2013-01-11 01:50:00,
2013-01-10 20:52:00,37.2,25.0,30.23,SSE,154,2.0,7.0,61,0.01,,---,0.08,VWS V14.01,2013-01-11 01:52:00,
2013-01-10 20:58:00,37.2,25.4,30.23,SE,125,1.0,7.0,62,0.01,,---,0.08,VWS V14.01,2013-01-11 01:58:00,
2013-01-10 21:00:00,37.2,25.4,30.22,SE,126,0.0,7.0,62,0.01,,---,0.08,VWS V14.01,2013-01-11 02:00:00,
2013-01-10 21:03:00,37.2,25.4,30.22,SSE,162,0.0,6.0,62,0.01,,---,0.08,VWS V14.01,2013-01-11 02:03:00,
2013-01-10 21:08:00,37.0,25.6,30.21,ESE,117,0.0,6.0,63,0.01,,---,0.08,VWS V14.01,2013-01-11 02:08:00,
2013-01-10 21:10:00,37.0,25.6,30.21,West,261,1.0,6.0,63,0.01,,---,0.08,VWS V14.01,2013-01-11 02:10:00,
2013-01-10 21:13:00,37.0,25.6,30.21,SSE,151,0.0,5.0,63,0.01,,---,0.08,VWS V14.01,2013-01-11 02:13:00,
2013-01-10 21:18:00,36.8,26.1,30.20,SE,143,0.0,5.0,65,0.01,,---,0.08,VWS V14.01,2013-01-11 02:18:00,
2013-01-10 21:20:00,36.7,25.7,30.20,SE,143,0.0,5.0,64,0.01,,---,0.08,VWS V14.01,2013-01-11 02:20:00,
2013-01-10 21:23:00,36.6,26.0,30.20,SE,144,0.0,4.0,65,0.01,,---,0.08,VWS V14.01,2013-01-11 02:23:00,
2013-01-10 21:28:00,36.6,26.0,30.20,SSE,153,0.0,6.0,65,0.01,,---,0.08,VWS V14.01,2013-01-11 02:28:00,
2013-01-10 21:30:00,36.6,26.3,30.19,SSE,156,6.0,8.0,66,0.01,,---,0.08,VWS V14.01,2013-01-11 02:30:00,
2013-01-10 21:33:00,36.7,25.7,30.19,SSE,162,1.0,6.0,64,0.01,,---,0.08,VWS V14.01,2013-01-11 02:33:00,
2013-01-10 21:38:00,36.9,25.9,30.19,SSE,157,0.0,6.0,64,0.01,,---,0.08,VWS V14.01,2013-01-11 02:38:00,
2013-01-10 21:40:00,36.9,25.9,30.19,South,178,0.0,6.0,64,0.01,,---,0.08,VWS V14.01,2013-01-11 02:40:00,
2013-01-10 21:43:00,37.0,26.0,30.18,SSE,160,2.0,4.0,64,0.00,,---,0.08,VWS V14.01,2013-01-11 02:43:00,
2013-01-10 21:48:00,37.2,25.8,30.19,ESE,122,2.0,8.0,63,0.00,,---,0.08,VWS V14.01,2013-01-11 02:48:00,
2013-01-10 21:50:00,37.3,25.9,30.19,SE,146,5.0,8.0,63,0.00,,---,0.08,VWS V14.01,2013-01-11 02:50:00,
2013-01-10 21:53:00,37.4,26.4,30.19,South,186,3.0,5.0,64,0.00,,---,0.08,VWS V14.01,2013-01-11 02:53:00,
2013-01-10 21:58:00,37.5,26.1,30.19,SSE,166,0.0,9.0,63,0.00,,---,0.08,VWS V14.01,2013-01-11 02:58:00,
2013-01-10 22:00:00,37.5,26.1,30.19,SSE,168,3.0,9.0,63,0.00,,---,0.08,VWS V14.01,2013-01-11 03:00:00,
2013-01-10 22:03:00,37.5,25.7,30.19,South,187,0.0,7.0,62,0.00,,---,0.08,VWS V14.01,2013-01-11 03:03:00,
2013-01-10 22:08:00,37.4,26.0,30.18,SE,134,0.0,7.0,63,0.00,,---,0.08,VWS V14.01,2013-01-11 03:08:00,
2013-01-10 22:10:00,37.4,26.0,30.18,SSE,160,0.0,7.0,63,0.00,,---,0.08,VWS V14.01,2013-01-11 03:10:00,
2013-01-10 22:13:00,37.3,25.5,30.18,SSE,160,0.0,4.0,62,0.00,,---,0.08,VWS V14.01,2013-01-11 03:13:00,
2013-01-10 22:18:00,37.5,25.7,30.18,South,179,1.0,7.0,62,0.00,,---,0.08,VWS V14.01,2013-01-11 03:18:00,
2013-01-10 22:20:00,37.6,25.8,30.17,South,179,0.0,7.0,62,0.00,,---,0.08,VWS V14.01,2013-01-11 03:20:00,
2013-01-10 22:23:00,37.5,25.7,30.18,South,174,2.0,3.0,62,0.00,,---,0.08,VWS V14.01,2013-01-11 03:23:00,
2013-01-10 22:28:00,37.6,25.8,30.18,SSE,161,5.0,6.0,62,0.00,,---,0.08,VWS V14.01,2013-01-11 03:28:00,
2013-01-10 22:30:00,37.6,25.4,30.17,East,94,0.0,6.0,61,0.00,,---,0.08,VWS V14.01,2013-01-11 03:30:00,
2013-01-10 22:33:00,37.6,25.8,30.17,East,93,0.0,2.0,62,0.00,,---,0.08,VWS V14.01,2013-01-11 03:33:00,
2013-01-10 22:38:00,37.6,25.8,30.17,SSE,153,0.0,5.0,62,0.00,,---,0.08,VWS V14.01,2013-01-11 03:38:00,
2013-01-10 22:40:00,37.6,25.8,30.17,SSE,164,0.0,5.0,62,0.00,,---,0.08,VWS V14.01,2013-01-11 03:40:00,
2013-01-10 22:43:00,37.6,25.8,30.16,SE,135,6.0,6.0,62,0.00,,---,0.08,VWS V14.01,2013-01-11 03:43:00,
2013-01-10 22:48:00,37.7,25.5,30.15,SSE,162,4.0,7.0,61,0.00,,---,0.08,VWS V14.01,2013-01-11 03:48:00,
2013-01-10 22:50:00,37.7,25.5,30.15,South,185,1.0,11.0,61,0.00,,---,0.08,VWS V14.01,2013-01-11 03:50:00,
2013-01-10 22:53:00,37.9,25.3,30.15,SSE,150,0.0,14.0,60,0.00,,---,0.08,VWS V14.01,2013-01-11 03:53:00,
2013-01-10 22:58:00,37.9,25.7,30.14,South,175,3.0,14.0,61,0.00,,---,0.08,VWS V14.01,2013-01-11 03:58:00,
2013-01-10 23:00:00,37.9,25.7,30.14,South,180,2.0,14.0,61,0.00,,---,0.08,VWS V14.01,2013-01-11 04:00:00,
2013-01-10 23:03:00,37.9,25.3,30.14,South,190,0.0,7.0,60,0.00,,---,0.08,VWS V14.01,2013-01-11 04:03:00,
2013-01-10 23:08:00,37.9,25.7,30.13,SSE,164,1.0,7.0,61,0.00,,---,0.08,VWS V14.01,2013-01-11 04:08:00,
2013-01-10 23:10:00,37.9,25.3,30.13,SSE,153,6.0,8.0,60,0.00,,---,0.08,VWS V14.01,2013-01-11 04:10:00,
2013-01-10 23:13:00,37.9,25.3,30.13,SE,135,6.0,7.0,60,0.00,,---,0.08,VWS V14.01,2013-01-11 04:13:00,
2013-01-10 23:18:00,38.0,25.4,30.12,South,191,2.0,7.0,60,0.00,,---,0.08,VWS V14.01,2013-01-11 04:18:00,
2013-01-10 23:20:00,38.0,25.8,30.13,SSE,148,5.0,8.0,61,0.00,,---,0.08,VWS V14.01,2013-01-11 04:20:00,
2013-01-10 23:23:00,37.9,25.3,30.12,South,187,2.0,8.0,60,0.00,,---,0.08,VWS V14.01,2013-01-11 04:23:00,
2013-01-10 23:28:00,37.7,25.5,30.11,SSE,157,6.0,8.0,61,0.00,,---,0.08,VWS V14.01,2013-01-11 04:28:00,
2013-01-10 23:30:00,37.8,25.6,30.11,SSE,157,6.0,8.0,61,0.00,,---,0.08,VWS V14.01,2013-01-11 04:30:00,
2013-01-10 23:33:00,37.9,24.9,30.11,South,184,6.0,7.0,59,0.00,,---,0.08,VWS V14.01,2013-01-11 04:33:00,
2013-01-10 23:38:00,38.0,25.0,30.11,SE,133,1.0,8.0,59,0.00,,---,0.08,VWS V14.01,2013-01-11 04:38:00,
2013-01-10 23:40:00,38.0,25.0,30.10,SSE,165,6.0,8.0,59,0.00,,---,0.08,VWS V14.01,2013-01-11 04:40:00,
2013-01-10 23:44:00,37.9,25.3,30.10,South,172,2.0,6.0,60,0.00,,---,0.08,VWS V14.01,2013-01-11 04:44:00,
2013-01-10 23:49:00,37.8,25.6,30.10,SE,125,3.0,6.0,61,0.00,,---,0.08,VWS V14.01,2013-01-11 04:49:00,
2013-01-10 23:50:00,37.6,25.4,30.10,SE,139,3.0,6.0,61,0.00,,---,0.08,VWS V14.01,2013-01-11 04:50:00,
2013-01-10 23:54:00,37.6,25.4,30.09,SSE,163,4.0,6.0,61,0.00,,---,0.08,VWS V14.01,2013-01-11 04:54:00,
2013-01-10 23:59:00,37.5,25.3,30.09,SE,132,2.0,6.0,61,0.00,,---,0.08,VWS V14.01,2013-01-11 04:59:00,